Weather History for KCOQ - October, 2012

Change the Weather History Date:

Tuesday, October 9, 2012

  Actual Average Record
Temperature  
Mean Temperature 37 °F -  
Max Temperature 44 °F 54 °F 75 °F (2003)
Min Temperature 30 °F 35 °F 28 °F (2000)
Degree Days  
Heating Degree Days 28    
Moisture  
Dew Point 30 °F    
Average Humidity 71    
Maximum Humidity 93    
Minimum Humidity 49    
Precipitation  
Precipitation 0.00 in - - ()
Sea Level Pressure  
Sea Level Pressure 29.72 in    
Wind  
Wind Speed 9 mph (WSW)    
Max Wind Speed 21 mph    
Max Gust Speed 28 mph    
Visibility 10 miles    
Events Rain    
Averages and records for this station are not official NWS values.
T = Trace of Precipitation, MM = Missing Value Source: NWS Daily Summary

Daily Weather History Graph

Daily Weather History Graph

Search for Another Location

Airport or City:

Trip Planner

Search our weather history database for the weather conditions in past years. The results will help you decide how hot, cold, wet, or windy it might be!

Date:

Astronomy

Oct. 09, 2012 Rise Set
Actual Time 7:20 AM CDT 6:33 PM CDT
Civil Twilight 6:49 AM CDT 7:03 PM CDT
Nautical Twilight 6:14 AM CDT 7:38 PM CDT
Astronomical Twilight 5:39 AM CDT 8:13 PM CDT
Moon 12:35 AM CDT (10/9) 3:20 PM CDT (10/9)
Length of Visible Light 12h 13m
Length of Day
11h 13m
Last Quarter, 36% of the Moon is Illuminated
Oct 9
Last Quarter
Oct 15
New
Oct 21
First Quarter
Oct 29
Full
Nov 6
Last Quarter

Hourly Weather History & Observations

Time (CDT) Temp. Windchill Dew Point Humidity Pressure Visibility Wind Dir Wind Speed Gust Speed Precip Events Conditions
12:16 AM 42.8 °F 39.3 °F 35.6 °F 76% 29.63 in 10.0 mi SW 5.8 mph - N/A   Scattered Clouds
12:36 AM 41.0 °F 36.4 °F 35.6 °F 81% 29.64 in 10.0 mi SW 6.9 mph - N/A   Clear
12:56 AM 41.0 °F 37.1 °F 33.8 °F 76% 29.64 in 10.0 mi SW 5.8 mph - N/A   Clear
1:16 AM 39.2 °F 35.0 °F 35.6 °F 87% 29.64 in 10.0 mi SW 5.8 mph - N/A   Clear
1:56 AM 41.0 °F 36.4 °F 35.6 °F 81% 29.65 in 10.0 mi WSW 6.9 mph - N/A   Clear
2:16 AM 41.0 °F 36.4 °F 35.6 °F 81% 29.65 in 10.0 mi WSW 6.9 mph - N/A   Clear
2:56 AM 41.0 °F 36.4 °F 35.6 °F 81% 29.65 in 10.0 mi SW 6.9 mph - N/A   Clear
3:16 AM 41.0 °F 37.1 °F 33.8 °F 76% 29.65 in 10.0 mi SW 5.8 mph - N/A   Clear
3:36 AM 39.2 °F 35.0 °F 33.8 °F 81% 29.64 in 10.0 mi SW 5.8 mph - N/A   Clear
3:56 AM 39.2 °F 35.9 °F 33.8 °F 81% 29.65 in 10.0 mi SW 4.6 mph - N/A   Scattered Clouds
4:16 AM 39.2 °F 35.9 °F 33.8 °F 81% 29.64 in 10.0 mi SSW 4.6 mph - N/A   Scattered Clouds
4:36 AM 39.2 °F 35.9 °F 33.8 °F 81% 29.64 in 10.0 mi SSW 4.6 mph - N/A   Scattered Clouds
4:56 AM 39.2 °F 37.0 °F 33.8 °F 81% 29.64 in 10.0 mi SW 3.5 mph - N/A   Scattered Clouds
5:16 AM 39.2 °F 37.0 °F 33.8 °F 81% 29.65 in 10.0 mi SW 3.5 mph - N/A   Overcast
5:36 AM 39.2 °F 35.9 °F 33.8 °F 81% 29.65 in 10.0 mi SW 4.6 mph - N/A   Scattered Clouds
5:56 AM 41.0 °F 36.4 °F 35.6 °F 81% 29.65 in 10.0 mi SW 6.9 mph - N/A   Overcast
6:16 AM 41.0 °F 36.4 °F 35.6 °F 81% 29.65 in 10.0 mi SW 6.9 mph - N/A   Overcast
6:36 AM 41.0 °F 37.1 °F 33.8 °F 76% 29.65 in 10.0 mi WSW 5.8 mph - N/A   Overcast
6:56 AM 41.0 °F 35.8 °F 33.8 °F 76% 29.65 in 10.0 mi SW 8.1 mph - N/A   Overcast
7:16 AM 41.0 °F 35.8 °F 33.8 °F 76% 29.66 in 10.0 mi WSW 8.1 mph - N/A   Overcast
7:36 AM 41.0 °F 36.4 °F 32.0 °F 70% 29.66 in 10.0 mi WSW 6.9 mph - N/A   Overcast
7:55 AM 41.0 °F 35.8 °F 32.0 °F 70% 29.66 in 10.0 mi WSW 8.1 mph - N/A   Mostly Cloudy
8:16 AM 41.0 °F 35.8 °F 30.2 °F 65% 29.66 in 10.0 mi WSW 8.1 mph - N/A   Mostly Cloudy
8:36 AM 41.0 °F 35.8 °F 30.2 °F 65% 29.66 in 10.0 mi WSW 8.1 mph - N/A   Scattered Clouds
8:55 AM 41.0 °F 34.7 °F 30.2 °F 65% 29.66 in 10.0 mi WSW 10.4 mph - N/A   Clear
9:16 AM 42.8 °F 35.8 °F 28.4 °F 57% 29.66 in 10.0 mi WSW 13.8 mph 17.3 mph N/A   Clear
9:36 AM 42.8 °F 34.8 °F 28.4 °F 57% 29.66 in 10.0 mi West 17.3 mph 21.9 mph N/A   Clear
9:55 AM 42.8 °F 36.2 °F 28.4 °F 57% 29.67 in 10.0 mi West 12.7 mph 25.3 mph N/A   Clear
10:16 AM 42.8 °F 36.2 °F 28.4 °F 57% 29.67 in 10.0 mi WSW 12.7 mph 17.3 mph N/A   Clear
10:36 AM 44.6 °F 38.4 °F 28.4 °F 53% 29.67 in 10.0 mi West 12.7 mph 21.9 mph N/A   Scattered Clouds
10:56 AM 44.6 °F 37.4 °F 26.6 °F 49% 29.67 in 10.0 mi WSW 16.1 mph 21.9 mph N/A   Mostly Cloudy
11:14 AM 42.8 °F 35.4 °F 26.6 °F 53% 29.67 in 10.0 mi West 15.0 mph 26.5 mph N/A   Overcast
11:36 AM 42.8 °F 35.1 °F 24.8 °F 49% 29.67 in 10.0 mi WSW 16.1 mph 24.2 mph N/A   Overcast
11:56 AM 42.8 °F 35.4 °F 24.8 °F 49% 29.68 in 10.0 mi West 15.0 mph 18.4 mph N/A   Overcast
12:16 PM 42.8 °F 35.8 °F 24.8 °F 49% 29.68 in 10.0 mi West 13.8 mph - N/A   Overcast
12:36 PM 42.8 °F 35.1 °F 24.8 °F 49% 29.68 in 10.0 mi WSW 16.1 mph 23.0 mph N/A   Overcast
12:56 PM 42.8 °F 36.6 °F 26.6 °F 53% 29.68 in 10.0 mi West 11.5 mph 19.6 mph N/A   Overcast
1:16 PM 42.8 °F 34.8 °F 26.6 °F 53% 29.68 in 10.0 mi WSW 17.3 mph 23.0 mph N/A   Overcast
1:36 PM 42.8 °F 35.4 °F 26.6 °F 53% 29.68 in 10.0 mi West 15.0 mph 18.4 mph N/A   Overcast
1:55 PM 42.8 °F 35.4 °F 26.6 °F 53% 29.68 in 10.0 mi West 15.0 mph 21.9 mph N/A   Overcast
2:13 PM 42.8 °F 35.8 °F 26.6 °F 53% 29.68 in - West 13.8 mph - N/A   Overcast
2:36 PM 42.8 °F 35.4 °F 26.6 °F 53% 29.69 in 10.0 mi West 15.0 mph 23.0 mph N/A   Overcast
2:55 PM 42.8 °F 35.4 °F 26.6 °F 53% 29.69 in 10.0 mi West 15.0 mph 20.7 mph N/A   Overcast
3:16 PM 42.8 °F - 30.2 °F 61% 29.70 in 10.0 mi North - - N/A   Overcast
3:36 PM 32.0 °F 21.2 °F 30.2 °F 93% 29.70 in 10.0 mi West 16.1 mph - N/A   Overcast
3:56 PM 41.0 °F - 32.0 °F 70% 29.71 in - North - - N/A   Overcast
4:16 PM 41.0 °F 33.1 °F 33.8 °F 76% 29.72 in 10.0 mi West 15.0 mph 20.7 mph N/A   Overcast
4:34 PM 41.0 °F 32.8 °F 32.0 °F 70% 29.72 in 5.0 mi West 16.1 mph 27.6 mph N/A   Overcast
4:56 PM 39.2 °F 29.3 °F 33.8 °F 81% 29.74 in 5.0 mi NW 20.7 mph 25.3 mph N/A Rain Rain
5:16 PM 39.2 °F 31.6 °F 32.0 °F 75% 29.75 in 10.0 mi West 12.7 mph - N/A Rain Light Rain
5:34 PM 37.4 °F 29.8 °F 32.0 °F 81% 29.75 in 10.0 mi West 11.5 mph - N/A   Overcast
5:55 PM 37.4 °F 29.8 °F 30.2 °F 75% 29.76 in 10.0 mi WNW 11.5 mph 23.0 mph N/A   Overcast
6:16 PM 37.4 °F 30.8 °F 30.2 °F 75% 29.77 in 10.0 mi West 9.2 mph - N/A   Overcast
6:36 PM 37.4 °F 30.8 °F 30.2 °F 75% 29.78 in 10.0 mi West 9.2 mph 18.4 mph N/A   Overcast
6:56 PM 37.4 °F 30.8 °F 28.4 °F 70% 29.79 in 10.0 mi WNW 9.2 mph - N/A   Mostly Cloudy
7:16 PM 37.4 °F 31.4 °F 28.4 °F 70% 29.80 in 10.0 mi West 8.1 mph - N/A   Mostly Cloudy
7:35 PM 35.6 °F 27.5 °F 30.2 °F 81% 29.82 in 4.0 mi West 11.5 mph 19.6 mph N/A   Heavy Drizzle
7:56 PM 35.6 °F 28.6 °F 30.2 °F 81% 29.83 in 10.0 mi West 9.2 mph - N/A   Light Drizzle
8:16 PM 35.6 °F 27.5 °F 30.2 °F 81% 29.83 in 10.0 mi WNW 11.5 mph 16.1 mph N/A   Overcast
8:36 PM 35.6 °F 28.0 °F 30.2 °F 81% 29.84 in 10.0 mi West 10.4 mph - N/A   Overcast
8:56 PM 35.6 °F 28.6 °F 30.2 °F 81% 29.84 in 10.0 mi West 9.2 mph - N/A   Overcast
9:16 PM 35.6 °F 27.5 °F 28.4 °F 75% 29.85 in 10.0 mi WNW 11.5 mph 17.3 mph N/A   Overcast
9:36 PM 35.6 °F 28.0 °F 28.4 °F 75% 29.86 in 10.0 mi WNW 10.4 mph 17.3 mph N/A   Overcast
9:56 PM 33.8 °F 26.4 °F 26.6 °F 75% 29.86 in 10.0 mi WNW 9.2 mph - N/A   Scattered Clouds
10:16 PM 33.8 °F 27.0 °F 26.6 °F 75% 29.87 in 10.0 mi WNW 8.1 mph - N/A   Scattered Clouds
10:36 PM 33.8 °F 27.7 °F 28.4 °F 81% 29.87 in 10.0 mi West 6.9 mph - N/A   Mostly Cloudy
10:56 PM 33.8 °F 27.0 °F 28.4 °F 81% 29.87 in 10.0 mi WNW 8.1 mph - N/A   Scattered Clouds
11:16 PM 32.0 °F 25.6 °F 26.6 °F 80% 29.88 in 10.0 mi West 6.9 mph - N/A   Clear
11:36 PM 30.2 °F 24.3 °F 26.6 °F 86% 29.88 in 10.0 mi West 5.8 mph - N/A   Clear
11:56 PM 32.0 °F 24.8 °F 26.6 °F 80% 29.88 in 10.0 mi West 8.1 mph - N/A   Mostly Cloudy